Home > Weather > Charleroi > Past weeks

Flag for Belgium Past Weather in Charleroi, Belgium — Yesterday and Last 2 Weeks

Now
57 °F

Passing clouds.


Feels Like: 55 °F
Forecast: 55 / 69 °F
Wind: 8 mph from Southwest

Location: Charleroi / Gosselies

Current Time: Jul 30, 2016 at 7:40:44 AM

Latest Report: Jul 30, 2016 at 6:50 AM


Visibility: N/A

Pressure: 29.95 "Hg

Humidity: 88%

Dew Point: 54 °F

Location of CharleroiLocation

Past Weather in Charleroi — Graph

°F

Charleroi Temperature Yesterday

Maximum temperature yesterday: 72 °F (at 2:20 PM)
Minimum temperature yesterday: 59 °F (at 12:20 AM)
Average temperature yesterday: 65 °F

High & Low Weather Summary for the Past Weeks

 TemperatureHumidityPressure
High90 °F (Jul 20, 1:50 PM)100% (Jul 23, 3:20 AM)30.33 "Hg (Jul 23, 3:20 AM)
Low48 °F (Jul 15, 6:20 AM)35% (Jul 19, 4:20 PM)29.89 "Hg (Jul 20, 11:20 AM)
Average68 °F72%30.10 "Hg
* Reported Jul 15 6:20 AM — Jul 30 6:20 AM, Charleroi, Weather by CustomWeather, © 2016

Note: Actual official high and low records may vary slightly from our data, if they occured in-between our weather recording intervals... More about our weather records

Advertising

Charleroi Weather History for the Previous 24 Hours

Scroll right to see more
 ConditionsComfort  
Time TempWeatherWind HumidityBarometerVisibility
6:20 AM
Sat, Jul 30
57 °FPassing clouds.7 mph88%29.95 "HgN/A
5:50 AM57 °FPassing clouds.7 mph88%29.95 "HgN/A
5:20 AM57 °FClear.7 mph88%29.95 "Hg10 mi
4:50 AM57 °FClear.7 mph88%29.95 "Hg10 mi
4:20 AM57 °FClear.9 mph88%29.95 "Hg10 mi
3:50 AM57 °FClear.7 mph88%29.95 "Hg10 mi
3:20 AM59 °FClear.8 mph82%29.95 "Hg10 mi
2:50 AM59 °FPassing clouds.6 mph82%29.95 "HgN/A
2:20 AM59 °FPassing clouds.5 mph82%29.95 "HgN/A
1:50 AM59 °FPassing clouds.7 mph82%29.95 "HgN/A
1:20 AM61 °FPassing clouds.9 mph77%29.95 "HgN/A
12:50 AM61 °FPassing clouds.7 mph83%29.95 "HgN/A
12:20 AM63 °FPassing clouds.8 mph77%29.95 "HgN/A
11:50 PM
Fri, Jul 29
63 °FPassing clouds.5 mph77%29.95 "HgN/A
11:20 PM63 °FPassing clouds.6 mph77%29.95 "HgN/A
10:50 PM63 °FPassing clouds.5 mph77%29.95 "HgN/A
10:20 PM64 °FPassing clouds.7 mph73%29.95 "HgN/A
9:50 PM66 °FPassing clouds.5 mph73%29.92 "HgN/A
9:20 PM66 °FScattered clouds.5 mph73%29.92 "HgN/A
8:50 PM68 °FPassing clouds.7 mph69%29.92 "HgN/A
8:20 PM68 °FPassing clouds.8 mph69%29.92 "HgN/A
7:50 PM70 °FPassing clouds.6 mph64%29.92 "HgN/A
7:20 PM70 °FPassing clouds.8 mph64%29.92 "HgN/A
6:50 PM72 °FPassing clouds.8 mph61%29.92 "HgN/A
6:20 PM72 °FPassing clouds.12 mph61%29.92 "HgN/A
5:50 PM72 °FScattered clouds.9 mph61%29.92 "HgN/A
5:20 PM72 °FScattered clouds.10 mph61%29.92 "HgN/A
4:50 PM70 °FScattered clouds.16 mph64%29.92 "HgN/A
4:20 PM72 °FScattered clouds.12 mph61%29.92 "HgN/A
3:50 PM72 °FScattered clouds.14 mph65%29.92 "HgN/A
3:20 PM72 °FScattered clouds.17 mph61%29.92 "HgN/A
2:50 PM70 °FScattered clouds.14 mph69%29.92 "HgN/A
2:20 PM72 °FPartly sunny.16 mph61%29.92 "HgN/A
1:50 PM70 °FPartly sunny.21 mph64%29.92 "HgN/A
1:20 PM70 °FPartly sunny.15 mph69%29.92 "HgN/A
12:50 PM68 °FBroken clouds.14 mph73%29.92 "HgN/A
12:20 PM66 °FBroken clouds.10 mph78%29.92 "HgN/A
11:50 AM66 °FBroken clouds.8 mph83%29.92 "HgN/A
11:20 AM66 °FBroken clouds.10 mph83%29.95 "HgN/A
10:50 AM64 °FPartly sunny.12 mph83%29.95 "HgN/A
10:20 AM64 °FPartly sunny.12 mph88%29.95 "HgN/A
9:50 AM64 °FPartly sunny.9 mph88%29.95 "HgN/A
9:20 AM63 °FBroken clouds.8 mph94%29.95 "Hg4 mi
8:50 AM63 °FSprinkles. Broken clouds.9 mph94%29.95 "HgN/A
8:20 AM63 °FBroken clouds.8 mph94%29.95 "HgN/A
7:50 AM61 °FPartly sunny.9 mph94%29.95 "Hg5 mi
7:20 AM61 °FPartly sunny.10 mph94%29.95 "Hg5 mi
Weather by CustomWeather, © 2016

See weather overviewHow to use our weather pages